Temp
84 86 86 79 74 84 74 74 68 75 75 82 82 81 82 84 83 83 84 86 88 91 92 92 92 91 91 89 87 88 89 87
80 85 83 82 85 73 75 60 59 68 68 72 76 77 80 81 82 82 83 84 85 88 90 93 94 94 93 92 89 89 90 90
81 79 78 78 78 78 79 74 64 62 71 80 77 79 79 80 81 81 81 82 83 86 89 91 93 94 94 92 91 90 91 90
76 80 82 78 79 80 71 66 72 68 69 83 80 81 81 80 81 82 82 82 84 84 86 86 88 89 92 92 92 92 92 89
71 77 79 77 80 82 81 79 68 65 70 82 80 79 80 81 82 82 82 82 80 83 84 83 84 83 85 90 92 93 92 91
68 72 79 74 76 79 79 73 72 72 73 78 79 78 79 80 81 84 82 80 82 72 76 79 81 81 81 85 88 91 93 91
80 79 78 77 77 76 74 76 71 75 73 80 79 80 81 82 82 80 81 82 82 81 74 69 74 78 79 82 85 84 86 89
74 78 77 74 77 77 77 77 75 77 75 86 84 81 81 80 80 80 80 81 81 81 79 73 71 73 77 77 77 85 82 84
68 76 74 68 75 77 78 80 78 72 79 82 79 78 80 81 80 80 81 80 80 79 78 78 78 77 72 78 80 80 82 83
69 71 57 76 82 82 79 81 83 81 80 80 82 82 82 84 83 81 80 79 79 82 79 78 79 79 77 73 77 78 78 79
65 66 72 74 78 77 75 74 84 82 82 81 83 82 78 84 84 83 82 80 81 82 79 77 77 77 77 78 78 76 77 78
66 60 59 75 83 86 83 68 84 84 81 80 80 75 78 82 83 82 83 82 81 80 80 79 77 79 77 78 78 76 76 73
67 64 71 80 83 84 64 71 84 85 83 82 79 81 82 84 82 83 82 81 80 80 80 79 78 78 76 76 76 77 74 71
68 61 59 83 80 72 79 83 84 84 83 81 81 80 81 82 81 81 80 80 80 81 80 80 75 73 70 73 75 77 77 74
70 70 76 83 83 86 87 84 85 85 85 84 80 81 82 81 81 81 80 80 83 83 79 79 74 71 69 68 72 71 72 70
69 77 77 78 84 87 87 87 88 89 86 86 84 84 83 83 82 81 81 79 81 79 79 77 75 74 71 68 68 69 70 68
69 75 74 78 82 85 85 85 86 87 87 86 87 84 84 81 80 81 80 80 79 78 79 77 77 72 73 70 66 66 65 64
66 77 77 78 81 83 83 83 85 85 83 83 83 82 81 80 80 79 79 78 77 77 77 77 77 75 73 71 66 63 61 61
73 76 80 82 84 83 83 83 84 84 82 81 82 82 81 79 78 73 78 78 77 77 77 76 76 75 72 71 70 65 62 60
MSLP
1004.09 1003.86 1003.86 1003.54 1003.76 1003.50 1003.26 1003.89 1004.04 1003.49 1004.43 1004.73 1005.78 1006.36 1006.86 1007.12 1007.76 1007.99 1008.19 1008.20 1008.26 1008.41 1008.87 1009.27 1009.85 1010.48 1011.10 1011.75 1012.62 1013.23 1013.76 1014.54
1004.21 1004.34 1004.42 1003.80 1003.63 1003.34 1003.23 1003.03 1003.01 1003.20 1004.13 1004.15 1005.11 1005.95 1006.56 1007.21 1007.64 1008.30 1008.64 1008.78 1008.78 1008.71 1008.75 1008.96 1009.40 1009.98 1010.76 1011.26 1011.80 1012.44 1013.09 1013.75
1003.85 1003.39 1002.66 1003.89 1003.40 1003.46 1003.12 1003.56 1003.15 1003.14 1003.25 1004.57 1005.42 1006.03 1006.55 1007.40 1007.94 1008.46 1008.84 1008.95 1009.04 1008.87 1008.84 1008.99 1009.30 1009.64 1010.15 1010.88 1011.30 1011.83 1012.27 1012.84
1002.46 1003.71 1004.03 1003.83 1003.08 1002.81 1002.66 1002.89 1003.51 1004.24 1004.04 1004.88 1005.78 1006.31 1006.97 1007.57 1008.14 1008.59 1008.96 1009.01 1009.04 1009.25 1009.26 1009.60 1009.74 1010.13 1010.02 1010.36 1010.78 1011.11 1011.55 1012.24
1002.59 1003.52 1003.96 1003.39 1003.33 1003.27 1003.27 1003.26 1003.31 1003.75 1003.46 1005.01 1005.96 1006.58 1007.06 1007.37 1007.94 1008.40 1008.90 1009.16 1009.56 1009.54 1009.74 1010.17 1010.60 1010.83 1010.84 1010.48 1010.50 1010.60 1011.06 1011.53
1001.27 1001.54 1002.07 1002.68 1003.21 1003.41 1003.13 1002.54 1002.50 1003.11 1003.29 1004.29 1005.28 1006.13 1006.83 1007.38 1007.91 1008.16 1008.64 1009.11 1009.55 1010.53 1010.69 1010.97 1010.97 1011.13 1011.33 1011.04 1010.82 1010.52 1010.54 1010.99
1001.61 1002.14 1002.58 1002.68 1002.66 1003.15 1003.14 1002.94 1002.81 1002.53 1003.30 1003.66 1004.93 1005.58 1006.32 1007.06 1007.76 1008.17 1008.48 1008.97 1009.45 1009.98 1010.89 1011.32 1011.31 1011.32 1011.55 1011.36 1010.92 1011.11 1011.04 1010.84
1002.01 1002.56 1002.80 1002.72 1002.76 1002.84 1003.03 1003.00 1003.13 1003.21 1003.24 1003.50 1004.96 1005.89 1006.31 1007.02 1007.58 1007.97 1008.40 1008.92 1009.46 1009.91 1010.42 1011.03 1011.21 1011.40 1011.32 1011.59 1011.26 1010.89 1011.08 1010.89
1001.99 1002.41 1002.92 1002.64 1002.32 1002.42 1002.54 1002.83 1002.96 1002.81 1003.00 1004.14 1005.14 1005.75 1006.29 1006.88 1007.54 1007.99 1008.45 1009.01 1009.49 1009.94 1010.42 1010.88 1011.07 1011.20 1011.63 1011.68 1011.53 1011.22 1010.88 1010.79
1002.49 1002.74 1002.55 1001.94 1002.23 1002.24 1002.23 1002.32 1002.56 1002.99 1003.51 1004.42 1004.86 1005.63 1006.38 1006.82 1007.20 1007.97 1008.57 1009.18 1009.64 1010.00 1010.47 1010.87 1011.16 1011.23 1011.47 1011.58 1011.33 1011.32 1011.12 1011.11
1002.74 1002.53 1002.00 1002.09 1002.36 1002.65 1002.47 1002.27 1002.34 1002.68 1003.38 1004.55 1005.08 1005.86 1006.69 1007.14 1007.49 1007.98 1008.57 1009.26 1009.78 1010.16 1010.60 1010.95 1011.11 1011.31 1011.52 1011.33 1011.52 1011.58 1011.27 1011.38
1003.26 1002.51 1001.32 1001.19 1001.48 1002.34 1002.69 1002.05 1001.97 1002.41 1003.42 1004.48 1005.13 1005.10 1005.82 1007.22 1007.76 1008.27 1008.76 1009.29 1009.78 1010.21 1010.65 1010.85 1011.12 1011.36 1011.29 1011.34 1011.26 1011.37 1011.52 1011.74
1002.75 1002.39 1001.62 1001.59 1002.31 1002.85 1002.74 1002.05 1001.87 1002.51 1003.34 1004.22 1004.71 1005.31 1005.98 1007.17 1007.85 1008.36 1008.92 1009.50 1009.96 1010.34 1010.49 1010.83 1011.18 1011.31 1011.18 1011.24 1011.26 1011.24 1011.57 1011.80
1002.81 1002.20 1001.80 1002.07 1002.78 1002.52 1002.16 1002.25 1002.54 1003.04 1003.73 1004.39 1005.32 1006.18 1006.75 1007.33 1007.87 1008.37 1008.96 1009.55 1009.92 1010.13 1010.47 1010.92 1011.43 1011.63 1011.55 1011.34 1011.38 1011.30 1011.35 1011.61
1002.91 1002.26 1002.38 1002.06 1001.93 1002.30 1002.32 1002.52 1002.79 1003.14 1003.93 1004.68 1005.57 1006.16 1006.77 1007.29 1007.79 1008.34 1008.88 1009.36 1009.65 1009.96 1010.37 1010.88 1011.49 1011.67 1011.62 1011.86 1011.93 1011.80 1011.91 1012.28
1004.03 1002.48 1002.59 1002.62 1002.41 1002.36 1002.58 1002.45 1002.86 1003.26 1004.06 1004.68 1005.18 1005.80 1006.43 1007.00 1007.64 1008.23 1008.85 1009.32 1009.61 1010.00 1010.28 1010.64 1011.37 1011.60 1011.85 1012.17 1012.19 1012.05 1012.26 1012.84
1003.87 1003.14 1003.13 1002.90 1002.83 1002.67 1002.94 1003.19 1003.38 1003.81 1004.09 1004.59 1004.97 1005.74 1006.31 1007.10 1007.64 1008.16 1008.73 1009.28 1009.60 1009.92 1010.21 1010.57 1011.07 1011.67 1011.91 1012.26 1012.39 1012.44 1012.77 1013.06
1003.47 1003.08 1002.67 1002.27 1002.89 1003.25 1003.12 1003.38 1003.64 1003.96 1004.55 1005.17 1005.62 1006.05 1006.67 1007.12 1007.74 1008.22 1008.69 1009.22 1009.65 1009.98 1010.21 1010.55 1010.95 1011.40 1011.85 1012.22 1012.48 1012.78 1012.93 1013.23
1003.96 1004.10 1003.06 1002.43 1002.91 1003.46 1003.29 1003.72 1004.13 1004.40 1004.92 1005.37 1005.92 1006.31 1006.81 1007.19 1007.80 1008.33 1008.74 1009.10 1009.42 1009.74 1010.11 1010.56 1010.86 1011.20 1011.81 1012.20 1012.36 1012.78 1013.00 1013.31
Wind_Speed
6 4 9 9 11 7 9 5 9 3 2 11 6 7 6 2 0 1 2 4 5 12 12 14 15 15 16 16 15 16 16 13
7 7 5 10 3 8 8 5 6 7 4 5 2 4 5 1 1 1 0 1 4 7 11 13 14 14 14 15 15 15 14 13
9 10 7 8 10 8 9 6 9 6 2 6 1 4 4 4 3 4 3 4 5 5 8 9 11 13 13 13 14 14 14 14
5 6 1 3 9 7 9 7 3 8 7 6 3 3 3 6 4 2 3 5 4 3 3 6 6 8 10 11 13 13 13 13
10 11 7 9 9 10 9 8 11 9 5 8 6 6 6 5 3 3 1 2 5 6 2 4 2 5 8 10 12 12 13 14
8 3 3 8 10 12 13 10 7 9 1 11 7 9 8 7 3 2 2 1 4 4 4 2 2 1 6 9 10 11 11 12
12 4 5 10 9 12 14 13 9 1 4 1 4 4 7 8 6 3 2 1 0 2 2 1 0 1 2 6 7 8 12 11
13 7 7 10 11 11 14 14 8 14 9 6 7 5 8 9 7 5 3 1 2 2 1 0 2 3 3 1 3 5 9 10
14 10 9 13 14 13 13 11 13 14 10 8 9 10 10 9 7 5 2 1 3 3 4 2 3 1 4 4 3 2 6 8
13 7 15 11 3 6 12 14 13 12 1 8 9 11 9 6 6 5 3 1 0 1 1 1 1 1 2 5 6 5 3 3
12 12 10 6 7 8 11 15 14 16 7 9 11 12 8 8 4 4 3 4 2 1 0 3 4 2 4 4 3 5 6 6
10 16 17 10 2 5 5 14 17 11 13 13 14 11 9 9 8 5 4 5 4 3 1 3 4 5 5 6 5 5 5 4
14 11 11 3 6 6 10 4 4 11 13 14 13 5 15 11 8 6 6 5 4 1 2 3 4 5 6 6 8 4 3 4
16 14 14 9 10 12 4 5 8 9 11 12 9 10 11 10 9 8 7 6 4 2 1 2 4 5 5 6 2 2 1 3
8 12 5 14 13 12 6 6 8 10 11 12 12 11 11 9 9 7 6 5 3 1 1 2 3 3 3 3 3 2 3 4
6 7 5 6 7 7 8 7 7 7 11 12 11 10 9 8 8 8 7 6 5 3 1 3 2 3 1 2 3 3 5 5
12 14 4 5 13 11 9 6 6 5 7 8 6 7 6 7 7 7 7 7 6 4 2 1 1 2 2 1 2 2 4 5
13 13 10 8 12 7 10 9 7 7 6 4 4 4 5 6 7 8 8 8 7 6 4 1 1 1 1 2 3 4 4 3
5 10 7 5 9 9 8 7 6 5 3 4 4 4 7 6 7 7 8 9 9 8 6 3 2 2 3 1 3 5 4 4
Wind_Direction
205 215 266 152 233 1 294 219 264 139 175 220 175 195 194 223 135 298 354 330 246 239 228 206 208 205 202 196 198 198 199 198
152 180 171 283 97 211 201 251 249 135 266 294 193 203 191 187 112 98 80 9 343 256 224 222 210 209 208 205 202 204 207 202
181 213 178 172 213 233 306 317 310 289 341 64 347 169 145 115 84 72 14 330 328 297 220 216 218 213 206 209 209 206 205 209
190 109 317 279 287 253 251 184 202 305 294 87 141 155 158 140 143 109 8 12 357 57 187 197 220 236 232 217 212 213 213 209
187 177 186 229 201 248 266 294 271 286 102 115 158 194 193 199 189 204 297 33 37 48 101 126 171 233 243 247 231 224 213 216
240 16 17 198 218 228 244 246 246 228 315 157 183 198 209 207 214 202 141 68 84 95 38 47 7 254 267 261 251 242 220 218
255 290 259 279 267 212 229 254 269 288 229 286 95 200 196 206 189 194 180 204 358 332 99 314 274 146 266 278 243 229 242 226
241 215 240 250 242 228 228 249 246 273 267 303 121 158 173 181 200 209 209 265 307 315 18 43 17 35 56 88 321 225 215 230
240 198 229 241 238 228 236 227 243 254 261 132 163 161 169 174 188 197 207 346 324 331 313 233 229 105 318 319 335 299 237 215
254 166 229 248 60 274 258 253 247 250 193 200 181 153 154 164 159 160 161 148 113 305 308 273 281 292 335 314 302 283 306 225
245 224 235 201 206 230 242 258 249 241 175 185 161 153 152 159 155 129 128 122 98 34 237 244 264 226 266 279 282 267 255 249
196 243 239 245 192 195 274 264 245 227 170 175 171 198 139 155 155 150 139 122 126 116 173 252 251 267 260 269 270 264 256 274
214 230 240 117 151 166 224 44 127 184 169 173 190 45 124 144 151 145 140 141 133 141 325 350 303 300 271 256 260 304 187 275
232 216 234 143 159 214 49 102 142 159 160 167 127 135 142 153 151 153 151 154 179 174 44 23 335 296 299 265 312 281 32 15
263 226 126 180 216 204 242 165 167 163 161 158 161 160 162 159 159 163 168 165 183 217 135 63 322 316 304 325 356 265 102 65
290 195 202 214 208 211 204 185 180 175 160 171 174 164 162 166 171 174 181 189 190 200 282 341 336 296 312 334 283 236 148 122
273 276 275 220 223 200 182 154 161 143 160 183 189 173 177 177 186 189 186 192 196 207 221 358 11 310 308 59 334 112 129 134
230 281 234 231 196 209 181 167 161 162 154 165 204 220 193 197 193 198 191 191 196 203 204 222 245 160 345 88 117 130 123 120
272 308 268 175 184 186 156 151 138 146 135 176 151 192 190 195 192 188 196 199 202 198 194 188 216 186 107 137 138 157 158 139